Location: Hallum Trailer Park
(42.9458°N, 73.6508°W)
Time: 09:19:52
(UTC+00:00)

Daily predictions for brighter satellites

Satellite Brightness Start Highest point End
(mag) Time Altitude Azimuth Time Altitude Azimuth Time Altitude Azimuth
Okean-O 3.0 22:19:23 10° SE 22:23:33 42° ENE 22:27:45 10° N
SL-14 R/B 4.5 22:21:12 10° SSW 22:25:03 46° WNW 22:28:52 10° N
USA 32 4.2 22:21:28 10° SSE 22:26:32 55° E 22:31:38 10° NNE
Cosmos 2219 3.4 22:21:59 10° SSW 22:27:36 79° WNW 22:33:16 10° NNE
Cosmos 2082 4.2 22:22:40 10° S 22:27:51 40° ESE 22:33:05 10° NE
Cosmos 1340 Rocket 3.4 22:28:22 10° NNW 22:32:19 64° W 22:36:17 10° S
Cosmos 2297 Rocket 2.2 22:28:46 10° SSW 22:34:24 83° ESE 22:40:06 10° NNE
Cosmos 962 Rocket 4.5 22:28:24 10° S 22:34:29 74° E 22:40:39 10° NNE
Meteor 2-10 Rocket 3.9 22:29:40 10° N 22:34:37 40° ENE 22:39:22 10° SE
Envisat 3.0 22:29:55 10° SSE 22:34:57 70° ENE 22:40:02 10° N
Meteor 2-17 Rocket 4.5 22:29:21 10° S 22:35:30 86° E 22:41:40 10° N
Cosmos-2242 3.2 22:32:19 10° N 22:36:30 47° ENE 22:40:37 10° SSE
SKYMED 2 4.1 22:33:06 10° NNE 22:37:12 39° E 22:41:15 10° SSE
SMAP 3.6 22:33:19 10° S 22:37:56 65° WSW 22:42:34 10° NNW
Cosmos 1980 4.1 22:34:13 10° NNW 22:39:53 71° WSW 22:45:32 10° SSE
YAOGAN 6 2.8 22:36:43 10° SSE 22:40:16 50° ENE 22:43:50 10° N
DELTA 2 R/B (1) 4.0 22:40:55 10° W 22:46:25 63° S 22:51:57 10° ESE
Iridium 96 3.8 22:44:46 10° N 22:47:08 46° E 22:49:36 10° SSE
Cosmos 2227 Rocket 2.3 22:41:50 10° SSW 22:47:30 86° WNW 22:53:11 10° NNE
Meteor 1-21 Rocket 4.3 22:45:26 10° S 22:51:02 89° W 22:56:48 10° N
YAOGAN 1 3.1 22:47:40 10° SE 22:51:35 34° ENE 22:55:30 10° N
ISS -2.9 22:50:24 10° W 22:53:39 44° NNW 22:56:22 14° NE
FengYun 1-2 T 4.2 22:52:19 10° SSE 22:57:56 76° ENE 23:03:37 10° N
Cosmos 1727 Rocket 4.3 22:53:08 10° N 22:58:59 42° ENE 23:04:47 10° SE
Cosmos 1703 3.4 22:55:54 10° S 22:59:45 53° E 23:03:39 10° NNE
SL-8 Rocket 4.0 22:56:26 10° S 23:02:43 81° E 23:09:00 10° N
USA 267 4.1 23:07:44 10° NE 23:13:47 43° NNW 23:19:51 10° W
Cosmos 1939 Rocket 3.1 23:12:26 10° SE 23:16:10 45° ENE 23:19:59 10° N
CSL-04 Debris 4.1 23:12:08 10° SSE 23:17:26 64° ENE 23:22:47 10° N
Ariane Rocket 3.8 23:14:14 10° SE 23:18:33 29° ENE 23:22:53 10° N
SL-8 R/B 4.0 23:15:59 10° W 23:20:44 58° NNW 23:23:30 24° NE
Cosmos 1455 2.6 23:17:36 10° NNW 23:21:23 64° W 23:25:06 10° S
Cosmos 1953 Rocket 4.0 23:17:38 10° SSW 23:22:05 65° W 23:26:34 10° N
COSMO-SKYMED 1 3.1 23:21:01 10° N 23:25:20 61° WNW 23:29:36 10° SSW
CZ-2D R/B 3.2 23:23:39 10° SSE 23:27:26 61° ENE 23:31:15 10° N
Cosmos 1842 Rocket 3.7 23:23:41 10° N 23:28:03 49° ENE 23:32:22 10° SSE
Shenzhou-11 Module 1.4 23:27:48 10° W 23:30:30 90° NNW 23:30:36 82° E
Cosmos 1821 Rocket 4.2 23:30:26 10° SSE 23:36:27 46° E 23:42:26 10° NNE
CSL-04 Rocket 3.7 23:33:26 10° SSE 23:38:57 86° WSW 23:44:32 10° NNW
BREEZE-M DEB (TANK) 3.1 23:36:41 10° SW 23:40:21 47° SSE 23:40:21 47° SSE
USA 234 4.1 23:41:37 10° SSE 23:47:54 50° SW 23:54:14 10° WNW
CZ-4 R/B 3.1 23:50:38 10° SSW 23:54:22 35° W 23:58:13 10° NNW
